Weather History for Gustavus, AK

Change the Weather History Date:

Friday, May 2, 2014

  Actual Average Record
Temperature  
Mean Temperature 60 °F -  
Max Temperature 69 °F 53 °F 69 °F (2014)
Min Temperature 48 °F 36 °F 23 °F (1956)
Degree Days  
Heating Degree Days 6    
Growing Degree Days 10 (Base 50)    
Moisture  
Dew Point 25 °F    
Average Humidity 24    
Maximum Humidity 46    
Minimum Humidity 18    
Precipitation  
Precipitation 0.00 in - - ()
Sea Level Pressure  
Sea Level Pressure 30.12 in    
Wind  
Wind Speed 12 mph (North)    
Max Wind Speed 18 mph    
Max Gust Speed 26 mph    
Visibility 10 miles    
Events      
Averages and records for this station are not official NWS values.
T = Trace of Precipitation, MM = Missing Value Source: NWS Daily Summary

Daily Weather History Graph

Daily Weather History Graph

Search for Another Location

Airport:

Trip Planner

Search our weather history database for the weather conditions in past years. The results will help you decide how hot, cold, wet, or windy it might be!

Date:

Astronomy

May. 02, 2014 Rise Set
Actual Time 5:05 AM AKDT 8:55 PM AKDT
Civil Twilight 4:15 AM AKDT 9:45 PM AKDT
Nautical Twilight 3:02 AM AKDT 11:01 PM AKDT
Astronomical Twilight 1:32 AM AKDT 12:27 AM AKDT
Moon 7:34 AM AKDT (5/2) No Moon Set
Length of Visible Light 17h 30m
Length of Day
15h 50m
Waxing Crescent, 13% of the Moon is Illuminated
May 2
Waxing Crescent
May 6
First Quarter
May 14
Full
May 21
Last Quarter
May 28
New

Hourly Weather History & Observations

Time (AKDT) Temp. Dew Point Humidity Pressure Visibility Wind Dir Wind Speed Gust Speed Precip Events Conditions
12:16 AM 62.6 °F 24.8 °F 24% 30.15 in 10.0 mi North 13.8 mph 18.4 mph N/A   Clear
12:36 AM 62.6 °F 24.8 °F 24% 30.15 in 10.0 mi North 8.1 mph - N/A   Clear
12:56 AM 62.6 °F 24.8 °F 24% 30.15 in 10.0 mi NNE 8.1 mph 18.4 mph N/A   Clear
1:16 AM 62.6 °F 24.8 °F 24% 30.15 in 10.0 mi North 9.2 mph - N/A   Clear
1:36 AM 62.6 °F 24.8 °F 24% 30.15 in 10.0 mi North 11.5 mph 17.3 mph N/A   Clear
1:56 AM 62.6 °F 24.8 °F 24% 30.15 in 10.0 mi North 10.4 mph - N/A   Clear
2:16 AM 62.6 °F 24.8 °F 24% 30.15 in 10.0 mi North 10.4 mph - N/A   Clear
2:36 AM 60.8 °F 24.8 °F 25% 30.15 in 10.0 mi North 9.2 mph - N/A   Clear
2:56 AM 60.8 °F 24.8 °F 25% 30.14 in 10.0 mi North 10.4 mph - N/A   Clear
3:16 AM 60.8 °F 24.8 °F 25% 30.14 in 10.0 mi North 11.5 mph 16.1 mph N/A   Clear
3:36 AM 60.8 °F 24.8 °F 25% 30.14 in 10.0 mi North 10.4 mph 16.1 mph N/A   Clear
3:56 AM 60.8 °F 24.8 °F 25% 30.14 in 10.0 mi North 10.4 mph 16.1 mph N/A   Clear
4:16 AM 60.8 °F 24.8 °F 25% 30.14 in 10.0 mi North 11.5 mph 16.1 mph N/A   Clear
4:36 AM 60.8 °F 24.8 °F 25% 30.14 in 10.0 mi North 12.7 mph - N/A   Clear
4:56 AM 59.0 °F 24.8 °F 27% 30.13 in 10.0 mi NNW 15.0 mph - N/A   Clear
5:16 AM 60.8 °F 24.8 °F 25% 30.13 in 10.0 mi NNW 16.1 mph 20.7 mph N/A   Clear
5:36 AM 60.8 °F 24.8 °F 25% 30.13 in 10.0 mi North 11.5 mph 19.6 mph N/A   Clear
5:56 AM 60.8 °F 24.8 °F 25% 30.12 in 10.0 mi North 11.5 mph 18.4 mph N/A   Clear
6:16 AM 62.6 °F 23.0 °F 22% 30.12 in 10.0 mi NNE 13.8 mph 20.7 mph N/A   Clear
6:36 AM 62.6 °F 24.8 °F 24% 30.12 in 10.0 mi North 10.4 mph - N/A   Clear
6:56 AM 62.6 °F 24.8 °F 24% 30.13 in 10.0 mi North 10.4 mph - N/A   Clear
7:16 AM 62.6 °F 24.8 °F 24% 30.13 in 10.0 mi North 12.7 mph 19.6 mph N/A   Clear
7:36 AM 62.6 °F 24.8 °F 24% 30.13 in 10.0 mi NNE 12.7 mph - N/A   Clear
7:56 AM 64.4 °F 24.8 °F 22% 30.12 in 10.0 mi North 12.7 mph 19.6 mph N/A   Clear
8:16 AM 64.4 °F 24.8 °F 22% 30.13 in 10.0 mi NNE 13.8 mph 21.9 mph N/A   Clear
8:36 AM 64.4 °F 23.0 °F 21% 30.12 in 10.0 mi NNE 13.8 mph 21.9 mph N/A   Clear
8:56 AM 64.4 °F 24.8 °F 22% 30.12 in 10.0 mi NNE 15.0 mph 23.0 mph N/A   Clear
9:16 AM 64.4 °F 24.8 °F 22% 30.12 in 10.0 mi North 16.1 mph 20.7 mph N/A   Clear
9:36 AM 66.2 °F 24.8 °F 21% 30.12 in 10.0 mi NNE 12.7 mph 23.0 mph N/A   Clear
9:56 AM 66.2 °F 24.8 °F 21% 30.12 in 10.0 mi NNE 12.7 mph 21.9 mph N/A   Clear
10:16 AM 66.2 °F 24.8 °F 21% 30.12 in 10.0 mi North 13.8 mph 18.4 mph N/A   Clear
10:36 AM 66.2 °F 24.8 °F 21% 30.12 in 10.0 mi North 12.7 mph 20.7 mph N/A   Clear
10:56 AM 66.2 °F 24.8 °F 21% 30.13 in 10.0 mi North 16.1 mph 23.0 mph N/A   Clear
11:16 AM 66.2 °F 24.8 °F 21% 30.13 in 10.0 mi North 13.8 mph - N/A   Clear
11:36 AM 68.0 °F 24.8 °F 20% 30.13 in 10.0 mi NNE 15.0 mph - N/A   Clear
11:56 AM 68.0 °F 24.8 °F 20% 30.14 in 10.0 mi NNE 12.7 mph 19.6 mph N/A   Clear
12:16 PM 66.2 °F 24.8 °F 21% 30.14 in 10.0 mi NNE 13.8 mph 24.2 mph N/A   Clear
12:36 PM 68.0 °F 24.8 °F 20% 30.14 in 10.0 mi North 12.7 mph 20.7 mph N/A   Clear
12:56 PM 68.0 °F 24.8 °F 20% 30.14 in 10.0 mi NNE 13.8 mph 19.6 mph N/A   Clear
1:16 PM 68.0 °F 24.8 °F 20% 30.14 in 10.0 mi NE 13.8 mph 21.9 mph N/A   Clear
1:36 PM 68.0 °F 24.8 °F 20% 30.14 in 10.0 mi North 15.0 mph 23.0 mph N/A   Clear
1:56 PM 68.0 °F 24.8 °F 20% 30.14 in 10.0 mi North 16.1 mph 26.5 mph N/A   Clear
2:16 PM 68.0 °F 24.8 °F 20% 30.14 in 10.0 mi North 15.0 mph 19.6 mph N/A   Clear
2:36 PM 68.0 °F 26.6 °F 21% 30.14 in 10.0 mi East 10.4 mph - N/A   Clear
2:56 PM 68.0 °F 24.8 °F 20% 30.14 in 10.0 mi NE 12.7 mph 16.1 mph N/A   Clear
3:16 PM 68.0 °F 24.8 °F 20% 30.14 in 10.0 mi North 9.2 mph - N/A   Clear
3:36 PM 68.0 °F 26.6 °F 21% 30.14 in 10.0 mi NE 10.4 mph 26.5 mph N/A   Clear
3:56 PM 68.0 °F 24.8 °F 20% 30.14 in 10.0 mi NE 17.3 mph 23.0 mph N/A   Clear
4:16 PM 68.0 °F 24.8 °F 20% 30.13 in 10.0 mi NNE 15.0 mph 20.7 mph N/A   Clear
4:36 PM 69.8 °F 26.6 °F 20% 30.13 in 10.0 mi North 11.5 mph 19.6 mph N/A   Clear
4:56 PM 68.0 °F 24.8 °F 20% 30.12 in 10.0 mi NNE 11.5 mph 21.9 mph N/A   Clear
5:16 PM 68.0 °F 24.8 °F 20% 30.12 in 10.0 mi North 13.8 mph 20.7 mph N/A   Clear
5:36 PM 68.0 °F 24.8 °F 20% 30.12 in 10.0 mi NNE 10.4 mph - N/A   Clear
5:56 PM 68.0 °F 24.8 °F 20% 30.12 in 10.0 mi NE 16.1 mph 20.7 mph N/A   Clear
6:16 PM 68.0 °F 24.8 °F 20% 30.11 in 10.0 mi NNE 12.7 mph - N/A   Clear
6:36 PM 66.2 °F 24.8 °F 21% 30.09 in 10.0 mi NE 18.4 mph - N/A   Clear
6:56 PM 66.2 °F 23.0 °F 19% 30.08 in 10.0 mi NNE 9.2 mph - N/A   Clear
7:16 PM 66.2 °F 21.2 °F 18% 30.09 in 10.0 mi North 11.5 mph 18.4 mph N/A   Clear
7:36 PM 66.2 °F 21.2 °F 18% 30.08 in 10.0 mi North 10.4 mph - N/A   Clear
7:56 PM 64.4 °F 21.2 °F 19% 30.08 in 10.0 mi NNE 9.2 mph 18.4 mph N/A   Clear
8:16 PM 64.4 °F 21.2 °F 19% 30.08 in 10.0 mi North 13.8 mph - N/A   Clear
8:36 PM 62.6 °F 24.8 °F 24% 30.08 in 10.0 mi NNW 5.8 mph - N/A   Clear
8:56 PM 60.8 °F 24.8 °F 25% 30.08 in 10.0 mi NW 5.8 mph - N/A   Clear
9:16 PM 60.8 °F 24.8 °F 25% 30.08 in 10.0 mi Calm Calm - N/A   Clear
9:36 PM 57.2 °F 24.8 °F 29% 30.08 in 10.0 mi WNW 3.5 mph - N/A   Clear
9:56 PM 53.6 °F 26.6 °F 35% 30.08 in 10.0 mi NW 5.8 mph - N/A   Clear
10:16 PM 53.6 °F 28.4 °F 38% 30.08 in 10.0 mi WNW 3.5 mph - N/A   Clear
10:36 PM 51.8 °F 28.4 °F 41% 30.09 in 10.0 mi North 8.1 mph - N/A   Clear
10:56 PM 51.8 °F 28.4 °F 41% 30.09 in 10.0 mi North 5.8 mph - N/A   Clear
11:16 PM 51.8 °F 30.2 °F 44% 30.09 in 10.0 mi North 6.9 mph - N/A   Clear
11:36 PM 50.0 °F 28.4 °F 43% 30.08 in 10.0 mi North 5.8 mph - N/A   Clear
11:56 PM 48.2 °F 28.4 °F 46% 30.09 in 10.0 mi NW 6.9 mph - N/A   Clear